星链-2630 (STARLINK-2630 )

导读

STARLINK-2630是美国太空探索技术公司星链星座的卫星,于2021年5月4日发射。作为星链互联网星座组网卫星,它通过低轨部署为全球提供高速互联网服务,尤其覆盖偏远地区,目前已在轨运行近5年,参与构建全球低轨卫星通信网络,支撑星链的全球互联服务能力。

Basic Information
目录编号:
48381
目录名称:
STARLINK-2630
国际标识:
2021-038AE
轨道中心:
EARTH
卫星名称:
星链-2630
卫星全名:
星链-2630 (STARLINK-2630 )
卫星状态:
在轨 (已飞行1871 天)
发射日期:
2021-05-04 UTC
国别 :
美国 (US)
星等 :
--
Orbit Information
数据来源 国际轨道数据 AOE轨道数据
星历时间 2026-06-17T20:33:55+0800
1天前
查看轨道信息
2026-06-16T06:00:00+0800
2天前
查看轨道信息
半长轴 6848.782km 6848.92km
偏心率 0.0001323 0.0001399
轨道倾角 53.159° 53.158°
近地点辐角 64.566° 42.574°
升交点赤经 243.917° 251.398°
平近点角 295.548° 91.914°
近地点 469.738km 469.824km
远地点 471.552km 471.742km
周期 94.011分钟 94.014分钟
每日圈数 15.317319 15.316859
Detailed Information
固有亮度:
5
最大亮度:
2.5
卫星平台:
Starlink V1.0
覆盖范围:
全球
运营商:
太空探索技术公司
运营商所在国:
美国
制造商(研发单位):
太空探索技术公司
制造商所在国:
美国
使用方式:
暂无
Satellite Introduction
星链(Starlink)计划是由太空探索技术公司(SpaceX)提出的一个巨型低轨卫星互联网星座项目,计划在2019年至2024年间在太空搭建由约1.2万颗卫星组成的“星链”网络,其中1584颗将部署在地球上空550千米处的近地轨道,并从2020年开始工作。该卫星仍在工作。
2D Orbit Map
3D Orbit Map
Orbit Altitude Analysis Chart
Orbit Inclination Analysis Chart
Orbit Comprehensive Analysis Chart
View Comprehensive Chart